Weather in Bethlehem

Palestinian Territory     31°42′16″N   35°12′13″E
temp.,
°C
wind,
m/s
gust,
m/s
humid.,
%
clouds,
%
prec.,
mm/h
press.,
hPa
HPBL,
m
10 may, mon
mon1000:00+25wnw442392 0.0 101143
03:00+24w3326100 0.0 101017
06:00+20wsw334798 0.0 101139
09:00+27wsw132349 0.0 1011432
12:00+30w3423100 0.0 1010971
15:00+30wnw88260 0.0 1009878
18:00+26wnw79301 0.0 1008375
21:00+22w444544 0.3 101098
11 may, tue
tue1100:00+21wnw334778 0.0 101041
03:00+20wnw224720 0.0 100916
06:00+19w33570 0.0 101025
09:00+23wnw12360 0.0 1010495
12:00+27nnw23260 0.0 10101189
15:00+29nw54230 0.0 10081587
18:00+24nw99270 0.0 1008439
21:00+20wnw46370 0.0 1010233
12 may, wed
wed1200:00+19wnw33340 0.0 101036
03:00+19wnw22340 0.0 101015
06:00+17wnw22400 0.0 101011
09:00+22nw11270 0.0 1011455
12:00+27nw23220 0.0 10101166
15:00+28nw65250 0.0 10091415
18:00+24nw88370 0.0 1009468
21:00+20wnw46530 0.0 1010196
13 may, thu
thu1300:00+19wnw33470 0.0 101144
03:00+18wnw33460 0.0 101125
06:00+16wnw22511 0.0 101215
09:00+22ene11291 0.0 1012397
12:00+27nnw23210 0.0 10111037
15:00+28nw64250 0.0 10101291
18:00+24nw89340 0.0 1011413
21:00+20wnw44450 0.0 101395
14 may, fri
fri1400:00+19wnw33350 0.0 101332
03:00+17wnw22350 0.0 101314
06:00+16wnw11340 0.0 101411
09:00+23nne12180 0.0 1014377
12:00+28n34140 0.0 1014977
15:00+30nw76190 0.0 10121303
18:00+24nw911320 0.0 1013450
21:00+20wnw47420 0.0 1014189